,,,PA_Meas_PMT16A,,PR_Meas_QMR101_102,,RH_Meas_QMH101,,SR_Meas_QMS101,,TA_Meas_QMH101,,GenWind,,GenWind,
date,time,status,PA,status,PR,status,RH,status,SR,status,TA,status,DirAvg,status,SpdAvg,
2009-12-30, 00:00:04,VALID,1000.19,VALID,0,VALID,91.3876,VALID,0,VALID,24.072,VALID,356,VALID,0,
2009-12-30, 00:01:04,VALID,1000.19,VALID,0,VALID,91.3723,VALID,0,VALID,24.072,VALID,356,VALID,0,
2009-12-30, 00:02:04,VALID,1000.19,VALID,0,VALID,91.4257,VALID,0,VALID,24.0915,VALID,356,VALID,0,
2009-12-30, 00:03:04,VALID,1000.18,VALID,0,VALID,91.4028,VALID,0,VALID,24.072,VALID,356,VALID,0,
2009-12-30, 00:04:04,VALID,1000.2,VALID,0,VALID,91.3647,VALID,0,VALID,24.072,VALID,356,VALID,0,
2009-12-30, 00:05:04,VALID,1000.16,VALID,0,VALID,91.3571,VALID,0,VALID,24.072,VALID,356,VALID,0,
2009-12-30, 00:06:04,VALID,1000.18,VALID,0,VALID,91.3037,VALID,0,VALID,24.0701,VALID,356,VALID,0,
2009-12-30, 00:07:04,VALID,1000.18,VALID,0,VALID,91.2884,VALID,0,VALID,24.072,VALID,356,VALID,0,
2009-12-30, 00:08:04,VALID,1000.15,VALID,0,VALID,91.3113,VALID,0,VALID,24.0915,VALID,356,VALID,0,
2009-12-30, 00:09:04,VALID,1000.15,VALID,0,VALID,91.2655,VALID,0,VALID,24.072,VALID,356,VALID,0,
2009-12-30, 00:10:04,VALID,1000.16,VALID,0,VALID,91.174,VALID,0,VALID,24.0525,VALID,356,VALID,0,
2009-12-30, 00:11:04,VALID,1000.15,VALID,0,VALID,91.0977,VALID,0,VALID,24.0525,VALID,356,VALID,0,
2009-12-30, 00:12:04,VALID,1000.14,VALID,0,VALID,91.029,VALID,0,VALID,24.072,VALID,356,VALID,0,
2009-12-30, 00:13:04,VALID,1000.17,VALID,0,VALID,91.0061,VALID,0,VALID,24.0701,VALID,356,VALID,0,
2009-12-30, 00:14:04,VALID,1000.14,VALID,0,VALID,90.9451,VALID,0,VALID,24.0293,VALID,356,VALID,0,
2009-12-30, 00:15:04,VALID,1000.12,VALID,0,VALID,90.8306,VALID,0,VALID,24.0506,VALID,356,VALID,0,
2009-12-30, 00:16:04,VALID,1000.11,VALID,0,VALID,90.7543,VALID,0,VALID,24.0506,VALID,356,VALID,0,
2009-12-30, 00:17:04,VALID,1000.07,VALID,0,VALID,90.6704,VALID,0,VALID,24.0506,VALID,356,VALID,0,
2009-12-30, 00:18:04,VALID,1000.03,VALID,0,VALID,90.6704,VALID,0,VALID,24.072,VALID,356,VALID,0,
2009-12-30, 00:19:04,VALID,999.971,VALID,0,VALID,90.7085,VALID,0,VALID,24.0525,VALID,356,VALID,0,
2009-12-30, 00:20:04,VALID,999.942,VALID,0,VALID,90.7925,VALID,0.112286,VALID,24.0329,VALID,356,VALID,0,
2009-12-30, 00:21:04,VALID,999.892,VALID,0,VALID,90.762,VALID,0,VALID,24.0329,VALID,356,VALID,0,
2009-12-30, 00:22:04,VALID,999.864,VALID,0,VALID,90.7314,VALID,0.112286,VALID,24.0329,VALID,356,VALID,0,
2009-12-30, 00:23:04,VALID,999.845,VALID,0,VALID,90.8383,VALID,0.112286,VALID,23.9921,VALID,356,VALID,0,
2009-12-30, 00:24:04,VALID,999.815,VALID,0,VALID,90.8077,VALID,0.112286,VALID,23.9921,VALID,356,VALID,0,
2009-12-30, 00:25:04,VALID,999.802,VALID,0,VALID,90.8306,VALID,0,VALID,24.0134,VALID,356,VALID,0,
2009-12-30, 00:26:04,VALID,999.775,VALID,0,VALID,90.7696,VALID,0,VALID,24.0134,VALID,356,VALID,0,
2009-12-30, 00:27:04,VALID,999.757,VALID,0,VALID,90.6933,VALID,0,VALID,23.9726,VALID,356,VALID,0,
2009-12-30, 00:28:04,VALID,999.748,VALID,0,VALID,90.6704,VALID,0,VALID,23.9726,VALID,356,VALID,0,
2009-12-30, 00:29:04,VALID,999.719,VALID,0,VALID,90.6475,VALID,0,VALID,24.0134,VALID,356,VALID,0,
2009-12-30, 00:30:04,VALID,999.677,VALID,0,VALID,90.5483,VALID,0,VALID,24.0116,VALID,356,VALID,0,
2009-12-30, 00:31:04,VALID,999.685,VALID,0,VALID,90.5712,VALID,0,VALID,24.0116,VALID,356,VALID,0,
2009-12-30, 00:32:04,VALID,999.648,VALID,0,VALID,90.4034,VALID,0,VALID,24.0311,VALID,356,VALID,0,
2009-12-30, 00:33:04,VALID,999.663,VALID,0,VALID,90.2889,VALID,0,VALID,24.072,VALID,356,VALID,0,
2009-12-30, 00:34:04,VALID,999.647,VALID,0,VALID,90.0982,VALID,0,VALID,24.0915,VALID,356,VALID,0,
2009-12-30, 00:35:04,VALID,999.648,VALID,0,VALID,89.8311,VALID,0,VALID,24.0897,VALID,109,VALID,0,
2009-12-30, 00:36:04,VALID,999.64,VALID,0,VALID,89.8235,VALID,0,VALID,24.1482,VALID,110,VALID,0,
2009-12-30, 00:37:04,VALID,999.628,VALID,0,VALID,89.8693,VALID,0.112286,VALID,24.1677,VALID,126,VALID,0,
2009-12-30, 00:38:04,VALID,999.655,VALID,0,VALID,89.7549,VALID,0.112286,VALID,24.1677,VALID,132,VALID,0,
2009-12-30, 00:39:04,VALID,999.643,VALID,0,VALID,89.8693,VALID,0,VALID,24.1891,VALID,132,VALID,0,
2009-12-30, 00:40:04,VALID,999.652,VALID,0,VALID,89.8769,VALID,0.112286,VALID,24.1482,VALID,132,VALID,0,
2009-12-30, 00:41:04,VALID,999.656,VALID,0,VALID,90.0295,VALID,0,VALID,24.1482,VALID,114,VALID,0,
2009-12-30, 00:42:04,VALID,999.688,VALID,0,VALID,90.1897,VALID,0,VALID,24.1696,VALID,98,VALID,0,
2009-12-30, 00:43:04,VALID,999.658,VALID,0,VALID,90.4263,VALID,0,VALID,24.1891,VALID,91,VALID,0,
2009-12-30, 00:44:04,VALID,999.654,VALID,0,VALID,90.5865,VALID,0,VALID,24.1287,VALID,90,VALID,0,
2009-12-30, 00:45:04,VALID,999.671,VALID,0,VALID,90.7467,VALID,0,VALID,24.1482,VALID,92,VALID,0,
2009-12-30, 00:46:04,VALID,999.663,VALID,0,VALID,90.884,VALID,0.112286,VALID,24.1305,VALID,90,VALID,0,
2009-12-30, 00:47:04,VALID,999.644,VALID,0,VALID,90.968,VALID,0,VALID,24.0897,VALID,87,VALID,0,
2009-12-30, 00:48:04,VALID,999.681,VALID,0,VALID,90.9374,VALID,0,VALID,24.0897,VALID,85,VALID,1.01563,
2009-12-30, 00:49:04,VALID,999.638,VALID,0,VALID,90.8917,VALID,0.112286,VALID,24.0506,VALID,86,VALID,0.803125,
2009-12-30, 00:50:04,VALID,999.628,VALID,0,VALID,90.7543,VALID,0,VALID,24.0311,VALID,86,VALID,0.560938,
2009-12-30, 00:51:04,VALID,999.608,VALID,0,VALID,90.7543,VALID,0,VALID,24.0116,VALID,86,VALID,0.339844,
2009-12-30, 00:52:04,VALID,999.58,VALID,0,VALID,90.7085,VALID,0,VALID,24.0134,VALID,86,VALID,0,
2009-12-30, 00:53:04,VALID,999.552,VALID,0,VALID,90.6551,VALID,0,VALID,23.9726,VALID,86,VALID,0,
2009-12-30, 00:54:04,VALID,999.528,VALID,0,VALID,90.6628,VALID,0,VALID,23.9531,VALID,86,VALID,0,
2009-12-30, 00:55:04,VALID,999.514,VALID,0,VALID,90.6551,VALID,0,VALID,23.9336,VALID,86,VALID,0,
2009-12-30, 00:56:04,VALID,999.504,VALID,0,VALID,90.7467,VALID,0,VALID,23.914,VALID,86,VALID,0,
2009-12-30, 00:57:04,VALID,999.495,VALID,0,VALID,90.823,VALID,0.112286,VALID,23.914,VALID,86,VALID,0,
2009-12-30, 00:58:04,VALID,999.492,VALID,0,VALID,90.9527,VALID,0,VALID,23.8945,VALID,87,VALID,0,
2009-12-30, 00:59:04,VALID,999.472,VALID,0,VALID,90.9756,VALID,0,VALID,23.8945,VALID,87,VALID,0,
2009-12-30, 01:00:04,VALID,999.446,VALID,0,VALID,91.0214,VALID,0.112286,VALID,23.8945,VALID,87,VALID,0,
2009-12-30, 01:01:04,VALID,999.422,VALID,0,VALID,91.029,VALID,0,VALID,23.875,VALID,87,VALID,0,
2009-12-30, 01:02:04,VALID,999.408,VALID,0,VALID,91.09,VALID,0,VALID,23.875,VALID,87,VALID,0,
2009-12-30, 01:03:04,VALID,999.392,VALID,0,VALID,91.1663,VALID,0,VALID,23.875,VALID,87,VALID,0,
2009-12-30, 01:04:04,VALID,999.396,VALID,0,VALID,91.2197,VALID,0,VALID,23.8945,VALID,86,VALID,0,
2009-12-30, 01:05:04,VALID,999.386,VALID,0,VALID,91.174,VALID,0,VALID,23.8945,VALID,74,VALID,0,
2009-12-30, 01:06:04,VALID,999.383,VALID,0,VALID,91.1129,VALID,0,VALID,23.8945,VALID,74,VALID,0,
2009-12-30, 01:07:04,VALID,999.38,VALID,0,VALID,91.1358,VALID,0,VALID,23.8945,VALID,74,VALID,0,
2009-12-30, 01:08:04,VALID,999.364,VALID,0,VALID,91.0977,VALID,0,VALID,23.9159,VALID,74,VALID,0,
2009-12-30, 01:09:04,VALID,999.356,VALID,0,VALID,91.1129,VALID,0,VALID,23.8945,VALID,74,VALID,0,
2009-12-30, 01:10:04,VALID,999.324,VALID,0,VALID,91.1434,VALID,0,VALID,23.875,VALID,74,VALID,0,
2009-12-30, 01:11:04,VALID,999.328,VALID,0,VALID,91.1434,VALID,0,VALID,23.875,VALID,74,VALID,0,
2009-12-30, 01:12:04,VALID,999.306,VALID,0,VALID,91.1511,VALID,0,VALID,23.875,VALID,74,VALID,0,
2009-12-30, 01:13:04,VALID,999.285,VALID,0,VALID,91.1358,VALID,0,VALID,23.8768,VALID,61,VALID,0,
2009-12-30, 01:14:04,VALID,999.242,VALID,0,VALID,91.0595,VALID,0,VALID,23.8768,VALID,61,VALID,0,
2009-12-30, 01:15:04,VALID,999.228,VALID,0,VALID,90.9909,VALID,0,VALID,23.8555,VALID,61,VALID,0,
2009-12-30, 01:16:04,VALID,999.201,VALID,0,VALID,90.9451,VALID,0,VALID,23.8963,VALID,61,VALID,0,
2009-12-30, 01:17:04,VALID,999.164,VALID,0,VALID,91.0366,VALID,0,VALID,23.9159,VALID,61,VALID,0,
2009-12-30, 01:18:04,VALID,999.158,VALID,0,VALID,91.0366,VALID,0,VALID,23.9159,VALID,61,VALID,0,
2009-12-30, 01:19:04,VALID,999.142,VALID,0,VALID,91.0366,VALID,0,VALID,23.914,VALID,61,VALID,0,
2009-12-30, 01:20:04,VALID,999.095,VALID,0,VALID,90.9985,VALID,0,VALID,23.914,VALID,61,VALID,0,
2009-12-30, 01:21:04,VALID,999.078,VALID,0,VALID,90.9985,VALID,0,VALID,23.9354,VALID,61,VALID,0,
2009-12-30, 01:22:04,VALID,999.049,VALID,0,VALID,90.9222,VALID,0,VALID,23.914,VALID,61,VALID,0,
2009-12-30, 01:23:04,VALID,999.013,VALID,0,VALID,90.8688,VALID,0,VALID,23.9549,VALID,61,VALID,0,
2009-12-30, 01:24:04,VALID,999.004,VALID,0,VALID,90.9146,VALID,0,VALID,23.9336,VALID,62,VALID,0,
2009-12-30, 01:25:04,VALID,998.991,VALID,0,VALID,91.0061,VALID,0,VALID,23.9744,VALID,69,VALID,0,
2009-12-30, 01:26:04,VALID,999.002,VALID,0,VALID,91.1587,VALID,0,VALID,23.9531,VALID,77,VALID,0.0511719,
2009-12-30, 01:27:04,VALID,998.966,VALID,0,VALID,91.2655,VALID,0,VALID,23.9939,VALID,88,VALID,1.12227,
2009-12-30, 01:28:04,VALID,998.96,VALID,0,VALID,91.3189,VALID,0,VALID,24.0134,VALID,98,VALID,1.02891,
2009-12-30, 01:29:04,VALID,998.909,VALID,0,VALID,91.38,VALID,0,VALID,24.0329,VALID,88,VALID,0.858203,
2009-12-30, 01:30:04,VALID,998.884,VALID,0,VALID,91.296,VALID,0,VALID,24.0329,VALID,87,VALID,1.25977,
2009-12-30, 01:31:04,VALID,998.885,VALID,0,VALID,91.2655,VALID,0,VALID,24.0329,VALID,90,VALID,0.923047,
2009-12-30, 01:32:04,VALID,998.844,VALID,0,VALID,91.2426,VALID,0,VALID,23.9921,VALID,92,VALID,0.708594,
2009-12-30, 01:33:04,VALID,998.809,VALID,0,VALID,91.1206,VALID,0,VALID,23.9921,VALID,92,VALID,0.808984,
2009-12-30, 01:34:04,VALID,998.786,VALID,0,VALID,90.9146,VALID,0,VALID,23.9939,VALID,87,VALID,0.733203,
2009-12-30, 01:35:04,VALID,998.78,VALID,0,VALID,90.5865,VALID,0,VALID,23.9744,VALID,82,VALID,0.671875,
2009-12-30, 01:36:04,VALID,998.767,VALID,0,VALID,90.5026,VALID,0,VALID,23.9531,VALID,70,VALID,0.119141,
2009-12-30, 01:37:04,VALID,998.731,VALID,0,VALID,90.35,VALID,0,VALID,23.9939,VALID,69,VALID,0,
2009-12-30, 01:38:04,VALID,998.716,VALID,0,VALID,90.0982,VALID,0,VALID,23.9549,VALID,78,VALID,0,
2009-12-30, 01:39:04,VALID,998.692,VALID,0,VALID,90.0295,VALID,0,VALID,23.9744,VALID,78,VALID,0,
2009-12-30, 01:40:04,VALID,998.686,VALID,0,VALID,89.9456,VALID,0,VALID,23.9549,VALID,78,VALID,0,
2009-12-30, 01:41:04,VALID,998.685,VALID,0,VALID,89.8693,VALID,0,VALID,23.9549,VALID,78,VALID,0,
2009-12-30, 01:42:04,VALID,998.686,VALID,0,VALID,89.8464,VALID,0,VALID,23.9744,VALID,76,VALID,0,
2009-12-30, 01:43:04,VALID,998.664,VALID,0,VALID,89.8464,VALID,0,VALID,23.9744,VALID,76,VALID,0,
2009-12-30, 01:44:04,VALID,998.656,VALID,0,VALID,89.8159,VALID,0,VALID,23.9336,VALID,55,VALID,0,
2009-12-30, 01:45:04,VALID,998.658,VALID,0,VALID,89.8388,VALID,0,VALID,23.9336,VALID,54,VALID,0.763672,
2009-12-30, 01:46:04,VALID,998.615,VALID,0,VALID,89.8311,VALID,0,VALID,23.914,VALID,53,VALID,0.707031,
2009-12-30, 01:47:04,VALID,998.648,VALID,0,VALID,89.8617,VALID,0,VALID,23.914,VALID,53,VALID,0.507422,
2009-12-30, 01:48:04,VALID,998.616,VALID,0,VALID,89.9074,VALID,0,VALID,23.9354,VALID,49,VALID,0.316406,
2009-12-30, 01:49:04,VALID,998.592,VALID,0,VALID,89.999,VALID,0,VALID,23.9354,VALID,49,VALID,0.174219,
2009-12-30, 01:50:04,VALID,998.594,VALID,0,VALID,90.0906,VALID,0,VALID,23.9159,VALID,49,VALID,0.112109,
2009-12-30, 01:51:04,VALID,998.593,VALID,0,VALID,90.144,VALID,0,VALID,23.8963,VALID,49,VALID,0.0195313,
2009-12-30, 01:52:04,VALID,998.551,VALID,0,VALID,90.1134,VALID,0,VALID,23.8963,VALID,49,VALID,0,
2009-12-30, 01:53:04,VALID,998.556,VALID,0,VALID,90.0829,VALID,0,VALID,23.8963,VALID,49,VALID,0,
2009-12-30, 01:54:04,VALID,998.523,VALID,0,VALID,90.0906,VALID,0,VALID,23.8963,VALID,49,VALID,0,
2009-12-30, 01:55:04,VALID,998.504,VALID,0,VALID,90.1516,VALID,0,VALID,23.8555,VALID,49,VALID,0,
2009-12-30, 01:56:04,VALID,998.522,VALID,0,VALID,90.2203,VALID,0,VALID,23.8768,VALID,49,VALID,0,
2009-12-30, 01:57:04,VALID,998.466,VALID,0,VALID,90.1668,VALID,0,VALID,23.8768,VALID,49,VALID,0,
2009-12-30, 01:58:04,VALID,998.415,VALID,0,VALID,90.0448,VALID,0,VALID,23.8768,VALID,49,VALID,0,
2009-12-30, 01:59:04,VALID,998.391,VALID,0,VALID,89.938,VALID,0,VALID,23.8945,VALID,49,VALID,0,
2009-12-30, 02:00:04,VALID,998.406,VALID,0,VALID,90.0448,VALID,0,VALID,23.9354,VALID,49,VALID,0,
2009-12-30, 02:01:04,VALID,998.363,VALID,0,VALID,89.9609,VALID,0,VALID,23.914,VALID,49,VALID,0,
2009-12-30, 02:02:04,VALID,998.35,VALID,0,VALID,90.1134,VALID,0,VALID,23.9336,VALID,49,VALID,0,
2009-12-30, 02:03:04,VALID,998.385,VALID,0,VALID,90.2203,VALID,0,VALID,23.9744,VALID,118,VALID,0,
2009-12-30, 02:04:04,VALID,998.409,VALID,0,VALID,90.3347,VALID,0,VALID,23.9726,VALID,126,VALID,0,
2009-12-30, 02:05:04,VALID,998.462,VALID,0,VALID,90.3881,VALID,0,VALID,23.9939,VALID,126,VALID,0,
2009-12-30, 02:06:04,VALID,998.495,VALID,0,VALID,90.4034,VALID,0,VALID,24.0134,VALID,125,VALID,0,
2009-12-30, 02:07:04,VALID,998.526,VALID,0,VALID,90.3347,VALID,0,VALID,24.0116,VALID,85,VALID,0.00507812,
2009-12-30, 02:08:04,VALID,998.541,VALID,0,VALID,90.1363,VALID,0,VALID,24.0134,VALID,42,VALID,0.742188,
2009-12-30, 02:09:04,VALID,998.584,VALID,0,VALID,90.4186,VALID,0,VALID,23.9939,VALID,28,VALID,1.03359,
2009-12-30, 02:10:04,VALID,998.584,VALID,0,VALID,90.5788,VALID,0,VALID,23.9549,VALID,25,VALID,0.562891,
2009-12-30, 02:11:04,VALID,998.602,VALID,0,VALID,90.7543,VALID,0,VALID,23.9354,VALID,17,VALID,0.576172,
2009-12-30, 02:12:04,VALID,998.617,VALID,0,VALID,90.8688,VALID,0,VALID,23.9354,VALID,17,VALID,0.473828,
2009-12-30, 02:13:04,VALID,998.638,VALID,0,VALID,90.884,VALID,0.112286,VALID,23.8945,VALID,17,VALID,0.276563,
2009-12-30, 02:14:04,VALID,998.623,VALID,0,VALID,90.9909,VALID,0,VALID,23.8945,VALID,17,VALID,0.00585938,
2009-12-30, 02:15:04,VALID,998.635,VALID,0,VALID,91.0977,VALID,0,VALID,23.8945,VALID,17,VALID,0,
2009-12-30, 02:16:04,VALID,998.634,VALID,0,VALID,91.235,VALID,0,VALID,23.8945,VALID,17,VALID,0,
2009-12-30, 02:17:04,VALID,998.599,VALID,0,VALID,91.4181,VALID,0,VALID,23.8945,VALID,17,VALID,0.563281,
2009-12-30, 02:18:04,VALID,998.579,VALID,0,VALID,91.5707,VALID,0,VALID,23.8945,VALID,17,VALID,0.633594,
2009-12-30, 02:19:04,VALID,998.565,VALID,0,VALID,91.6775,VALID,0,VALID,23.8945,VALID,17,VALID,0.5125,
2009-12-30, 02:20:04,VALID,998.547,VALID,0,VALID,91.708,VALID,0,VALID,23.8945,VALID,10,VALID,0.457031,
2009-12-30, 02:21:04,VALID,998.513,VALID,0,VALID,91.6394,VALID,0,VALID,23.8945,VALID,10,VALID,0,
2009-12-30, 02:22:04,VALID,998.531,VALID,0,VALID,91.6088,VALID,0,VALID,23.8945,VALID,10,VALID,0,
2009-12-30, 02:23:04,VALID,998.527,VALID,0,VALID,91.586,VALID,0,VALID,23.8945,VALID,10,VALID,0,
2009-12-30, 02:24:04,VALID,998.53,VALID,0,VALID,91.5631,VALID,0,VALID,23.8963,VALID,11,VALID,0,
2009-12-30, 02:25:04,VALID,998.522,VALID,0,VALID,91.5249,VALID,0,VALID,23.8963,VALID,12,VALID,0,
2009-12-30, 02:26:04,VALID,998.51,VALID,0,VALID,91.5249,VALID,0,VALID,23.8963,VALID,12,VALID,0,
2009-12-30, 02:27:04,VALID,998.467,VALID,0,VALID,91.4715,VALID,0,VALID,23.875,VALID,12,VALID,0,
2009-12-30, 02:28:04,VALID,998.473,VALID,0,VALID,91.4334,VALID,0,VALID,23.8555,VALID,12,VALID,0,
2009-12-30, 02:29:04,VALID,998.419,VALID,0,VALID,91.441,VALID,0,VALID,23.836,VALID,12,VALID,0,
2009-12-30, 02:30:04,VALID,998.405,VALID,0,VALID,91.4334,VALID,0,VALID,23.836,VALID,12,VALID,0,
2009-12-30, 02:31:04,VALID,998.422,VALID,0,VALID,91.4105,VALID,0,VALID,23.8378,VALID,12,VALID,0,
2009-12-30, 02:32:04,VALID,998.446,VALID,0,VALID,91.4181,VALID,0,VALID,23.8165,VALID,12,VALID,0,
2009-12-30, 02:33:04,VALID,998.481,VALID,0,VALID,91.4639,VALID,0,VALID,23.797,VALID,12,VALID,0,
2009-12-30, 02:34:04,VALID,998.519,VALID,0,VALID,91.5249,VALID,0,VALID,23.797,VALID,12,VALID,0,
2009-12-30, 02:35:04,VALID,998.539,VALID,0,VALID,91.5478,VALID,0,VALID,23.8183,VALID,12,VALID,0,
2009-12-30, 02:36:04,VALID,998.549,VALID,0,VALID,91.5631,VALID,0.112286,VALID,23.797,VALID,61,VALID,0.8125,
2009-12-30, 02:37:04,VALID,998.545,VALID,0,VALID,91.5402,VALID,0.112286,VALID,23.797,VALID,64,VALID,0.796484,
2009-12-30, 02:38:04,VALID,998.536,VALID,0,VALID,91.5478,VALID,0,VALID,23.797,VALID,64,VALID,0.696875,
2009-12-30, 02:39:04,VALID,998.532,VALID,0,VALID,91.5707,VALID,0,VALID,23.8165,VALID,56,VALID,0.630859,
2009-12-30, 02:40:04,VALID,998.495,VALID,0,VALID,91.6088,VALID,0,VALID,23.8165,VALID,40,VALID,0.766406,
2009-12-30, 02:41:04,VALID,998.485,VALID,0,VALID,91.6317,VALID,0,VALID,23.8165,VALID,39,VALID,0.676953,
2009-12-30, 02:42:04,VALID,998.452,VALID,0,VALID,91.6088,VALID,0,VALID,23.836,VALID,36,VALID,0.469141,
2009-12-30, 02:43:04,VALID,998.43,VALID,0,VALID,91.5707,VALID,0,VALID,23.836,VALID,36,VALID,0,
2009-12-30, 02:44:04,VALID,998.423,VALID,0,VALID,91.502,VALID,0,VALID,23.8378,VALID,36,VALID,0,
2009-12-30, 02:45:04,VALID,998.414,VALID,0,VALID,91.4486,VALID,0,VALID,23.8378,VALID,36,VALID,0,
2009-12-30, 02:46:04,VALID,998.4,VALID,0,VALID,91.4486,VALID,0,VALID,23.8183,VALID,36,VALID,0,
2009-12-30, 02:47:04,VALID,998.376,VALID,0,VALID,91.4868,VALID,0,VALID,23.8165,VALID,36,VALID,0,
2009-12-30, 02:48:04,VALID,998.378,VALID,0,VALID,91.4791,VALID,0,VALID,23.797,VALID,36,VALID,0,
2009-12-30, 02:49:04,VALID,998.373,VALID,0,VALID,91.5249,VALID,0,VALID,23.797,VALID,36,VALID,0,
2009-12-30, 02:50:04,VALID,998.362,VALID,0,VALID,91.4944,VALID,0,VALID,23.797,VALID,36,VALID,0,
2009-12-30, 02:51:04,VALID,998.351,VALID,0,VALID,91.5097,VALID,0.112286,VALID,23.797,VALID,36,VALID,0,
2009-12-30, 02:52:04,VALID,998.316,VALID,0,VALID,91.5554,VALID,0,VALID,23.797,VALID,36,VALID,0,
2009-12-30, 02:53:04,VALID,998.318,VALID,0,VALID,91.5631,VALID,0.112286,VALID,23.797,VALID,36,VALID,0,
2009-12-30, 02:54:04,VALID,998.305,VALID,0,VALID,91.5707,VALID,0,VALID,23.7775,VALID,36,VALID,0,
2009-12-30, 02:55:04,VALID,998.304,VALID,0,VALID,91.6165,VALID,0,VALID,23.7775,VALID,36,VALID,0,
2009-12-30, 02:56:04,VALID,998.301,VALID,0,VALID,91.6623,VALID,0.112286,VALID,23.7775,VALID,36,VALID,0,
2009-12-30, 02:57:04,VALID,998.31,VALID,0,VALID,91.6699,VALID,0,VALID,23.7579,VALID,36,VALID,0,
2009-12-30, 02:58:04,VALID,998.292,VALID,0,VALID,91.6851,VALID,0,VALID,23.7775,VALID,36,VALID,0,
2009-12-30, 02:59:04,VALID,998.311,VALID,0,VALID,91.7233,VALID,0,VALID,23.7793,VALID,36,VALID,0,
2009-12-30, 03:00:04,VALID,998.325,VALID,0,VALID,91.708,VALID,0,VALID,23.7579,VALID,36,VALID,0,
2009-12-30, 03:01:04,VALID,998.311,VALID,0,VALID,91.7385,VALID,0,VALID,23.7597,VALID,36,VALID,0,
2009-12-30, 03:02:04,VALID,998.345,VALID,0,VALID,91.7691,VALID,0,VALID,23.7384,VALID,36,VALID,0,
2009-12-30, 03:03:04,VALID,998.312,VALID,0,VALID,91.7996,VALID,0,VALID,23.7384,VALID,36,VALID,0,
2009-12-30, 03:04:04,VALID,998.284,VALID,0,VALID,91.7843,VALID,0,VALID,23.7384,VALID,44,VALID,0,
2009-12-30, 03:05:04,VALID,998.296,VALID,0,VALID,91.8377,VALID,0,VALID,23.7793,VALID,77,VALID,0,
2009-12-30, 03:06:04,VALID,998.3,VALID,0,VALID,91.914,VALID,0,VALID,23.797,VALID,85,VALID,0,
2009-12-30, 03:07:04,VALID,998.281,VALID,0,VALID,91.8683,VALID,0,VALID,23.8378,VALID,99,VALID,0,
2009-12-30, 03:08:04,VALID,998.248,VALID,0,VALID,91.8911,VALID,0,VALID,23.8378,VALID,101,VALID,0,
2009-12-30, 03:09:04,VALID,998.263,VALID,0,VALID,91.9522,VALID,0,VALID,23.836,VALID,116,VALID,0,
2009-12-30, 03:10:04,VALID,998.23,VALID,0,VALID,91.9903,VALID,0,VALID,23.836,VALID,116,VALID,0,
2009-12-30, 03:11:04,VALID,998.233,VALID,0,VALID,92.0895,VALID,0,VALID,23.836,VALID,116,VALID,0,
2009-12-30, 03:12:04,VALID,998.26,VALID,0,VALID,92.1734,VALID,0,VALID,23.836,VALID,116,VALID,0,
2009-12-30, 03:13:04,VALID,998.251,VALID,0,VALID,92.1963,VALID,0,VALID,23.8165,VALID,96,VALID,0,
2009-12-30, 03:14:04,VALID,998.227,VALID,0,VALID,92.2497,VALID,0,VALID,23.8183,VALID,90,VALID,0,
2009-12-30, 03:15:04,VALID,998.232,VALID,0,VALID,92.3031,VALID,0,VALID,23.797,VALID,90,VALID,0,
2009-12-30, 03:16:04,VALID,998.245,VALID,0,VALID,92.3108,VALID,0,VALID,23.8183,VALID,87,VALID,0,
2009-12-30, 03:17:04,VALID,998.237,VALID,0,VALID,92.326,VALID,0,VALID,23.7579,VALID,86,VALID,0,
2009-12-30, 03:18:04,VALID,998.252,VALID,0,VALID,92.3413,VALID,0,VALID,23.7597,VALID,82,VALID,0,
2009-12-30, 03:19:04,VALID,998.287,VALID,0,VALID,92.3489,VALID,0,VALID,23.7579,VALID,71,VALID,0,
2009-12-30, 03:20:04,VALID,998.266,VALID,0,VALID,92.3489,VALID,0,VALID,23.7597,VALID,68,VALID,0,
2009-12-30, 03:21:04,VALID,998.264,VALID,0,VALID,92.3337,VALID,0,VALID,23.7189,VALID,68,VALID,0,
2009-12-30, 03:22:04,VALID,998.278,VALID,0,VALID,92.2955,VALID,0,VALID,23.7402,VALID,68,VALID,0,
2009-12-30, 03:23:04,VALID,998.244,VALID,0,VALID,92.2803,VALID,0,VALID,23.7402,VALID,68,VALID,0,
2009-12-30, 03:24:04,VALID,998.244,VALID,0,VALID,92.2497,VALID,0,VALID,23.7207,VALID,68,VALID,0,
2009-12-30, 03:25:04,VALID,998.25,VALID,0,VALID,92.2345,VALID,0,VALID,23.7189,VALID,68,VALID,0,
2009-12-30, 03:26:04,VALID,998.255,VALID,0,VALID,92.2726,VALID,0,VALID,23.6994,VALID,68,VALID,0,
2009-12-30, 03:27:04,VALID,998.282,VALID,0,VALID,92.326,VALID,0,VALID,23.7207,VALID,68,VALID,0,
2009-12-30, 03:28:04,VALID,998.255,VALID,0,VALID,92.3718,VALID,0,VALID,23.6994,VALID,13,VALID,0,
2009-12-30, 03:29:04,VALID,998.227,VALID,0,VALID,92.41,VALID,0,VALID,23.7189,VALID,13,VALID,0,
2009-12-30, 03:30:04,VALID,998.194,VALID,0,VALID,92.4634,VALID,0,VALID,23.7207,VALID,13,VALID,0,
2009-12-30, 03:31:04,VALID,998.207,VALID,0,VALID,92.4786,VALID,0,VALID,23.7402,VALID,13,VALID,0,
2009-12-30, 03:32:04,VALID,998.185,VALID,0,VALID,92.4863,VALID,0,VALID,23.6994,VALID,13,VALID,0,
2009-12-30, 03:33:04,VALID,998.201,VALID,0,VALID,92.532,VALID,0,VALID,23.6799,VALID,13,VALID,0,
2009-12-30, 03:34:04,VALID,998.226,VALID,0,VALID,92.5473,VALID,0,VALID,23.7012,VALID,14,VALID,0,
2009-12-30, 03:35:04,VALID,998.202,VALID,0,VALID,92.5778,VALID,0,VALID,23.6799,VALID,17,VALID,0,
2009-12-30, 03:36:04,VALID,998.186,VALID,0,VALID,92.6388,VALID,0,VALID,23.7012,VALID,31,VALID,0,
2009-12-30, 03:37:04,VALID,998.181,VALID,0,VALID,92.677,VALID,0,VALID,23.6817,VALID,37,VALID,0,
2009-12-30, 03:38:04,VALID,998.189,VALID,0,VALID,92.7304,VALID,0,VALID,23.6817,VALID,37,VALID,0,
2009-12-30, 03:39:04,VALID,998.165,VALID,0,VALID,92.7228,VALID,0,VALID,23.6817,VALID,37,VALID,0,
2009-12-30, 03:40:04,VALID,998.161,VALID,0,VALID,92.7609,VALID,0,VALID,23.6817,VALID,37,VALID,0,
2009-12-30, 03:41:04,VALID,998.18,VALID,0,VALID,92.7609,VALID,0,VALID,23.6817,VALID,37,VALID,0,
2009-12-30, 03:42:04,VALID,998.152,VALID,0,VALID,92.7609,VALID,0,VALID,23.6604,VALID,37,VALID,0,
2009-12-30, 03:43:04,VALID,998.127,VALID,0,VALID,92.7762,VALID,0,VALID,23.6409,VALID,37,VALID,0,
2009-12-30, 03:44:04,VALID,998.127,VALID,0,VALID,92.8067,VALID,0,VALID,23.6622,VALID,37,VALID,0,
2009-12-30, 03:45:04,VALID,998.152,VALID,0,VALID,92.822,VALID,0,VALID,23.6409,VALID,37,VALID,0,
2009-12-30, 03:46:04,VALID,998.184,VALID,0,VALID,92.8601,VALID,0,VALID,23.6409,VALID,37,VALID,0,
2009-12-30, 03:47:04,VALID,998.211,VALID,0,VALID,92.8525,VALID,0,VALID,23.6622,VALID,37,VALID,0,
2009-12-30, 03:48:04,VALID,998.195,VALID,0,VALID,92.8601,VALID,0,VALID,23.6817,VALID,37,VALID,0,
2009-12-30, 03:49:05,VALID,998.234,VALID,0,VALID,92.8448,VALID,0,VALID,23.6604,VALID,37,VALID,0,
2009-12-30, 03:50:05,VALID,998.265,VALID,0,VALID,92.8525,VALID,0,VALID,23.6622,VALID,37,VALID,0,
2009-12-30, 03:51:05,VALID,998.247,VALID,0,VALID,92.8525,VALID,0,VALID,23.6604,VALID,37,VALID,0,
2009-12-30, 03:52:05,VALID,998.246,VALID,0,VALID,92.8525,VALID,0,VALID,23.6604,VALID,37,VALID,0,
2009-12-30, 03:53:05,VALID,998.268,VALID,0,VALID,92.8601,VALID,0,VALID,23.6817,VALID,37,VALID,0,
2009-12-30, 03:54:05,VALID,998.291,VALID,0,VALID,92.8906,VALID,0,VALID,23.6817,VALID,37,VALID,0,
2009-12-30, 03:55:05,VALID,998.313,VALID,0,VALID,92.8906,VALID,0,VALID,23.6799,VALID,37,VALID,0,
2009-12-30, 03:56:05,VALID,998.332,VALID,0,VALID,92.8906,VALID,0,VALID,23.7012,VALID,37,VALID,0,
2009-12-30, 03:57:05,VALID,998.359,VALID,0,VALID,92.9211,VALID,0,VALID,23.6994,VALID,37,VALID,0,
2009-12-30, 03:58:05,VALID,998.355,VALID,0,VALID,92.9135,VALID,0,VALID,23.7207,VALID,31,VALID,0,